Hourly Data Report for June 28, 2004

TORONTO CITY
ONTARIO

43°40'00.000" N
79°24'00.000" W
112.50 m
6158355
71508
XTO

Download Data

Hourly Data (June 2004)
Hourly Data Report for June 28, 2004
TIME
LST
Temp Definition
°C
Dew Point Definition
°C
Rel Hum Definition
%
Precip. Amount Definition
mm

Wind Dir Definition
10's deg

Wind Spd Definition
km/h
Visibility Definition
km
Stn Press Definition
kPa
Hmdx Definition


Wind Chill Definition


Weather Definition


00:00 15.4 8.7 64   LegendMM LegendMM LegendMM 100.40     LegendNANA
01:00 14.9 8.8 67   LegendMM LegendMM LegendMM 100.38     LegendNANA
02:00 15.4 9.3 67   LegendMM LegendMM LegendMM 100.37     LegendNANA
03:00 15.9 9.5 66   LegendMM LegendMM LegendMM 100.35     LegendNANA
04:00 15.4 9.5 68   LegendMM LegendMM LegendMM 100.28     LegendNANA
05:00 15.9 10.4 70   LegendMM LegendMM LegendMM 100.35     LegendNANA
06:00 15.7 10.4 71   LegendMM LegendMM LegendMM 100.41     LegendNANA
07:00 15.0 11.1 77   LegendMM LegendMM LegendMM 100.44     LegendNANA
08:00 14.9 11.2 79   LegendMM LegendMM LegendMM 100.47     LegendNANA
09:00 15.0 11.6 80   LegendMM LegendMM LegendMM 100.46     LegendNANA
10:00 15.3 11.7 79   LegendMM LegendMM LegendMM 100.43     LegendNANA
11:00 15.8 11.6 76   LegendMM LegendMM LegendMM 100.43     LegendNANA
12:00 15.6 11.6 77   LegendMM LegendMM LegendMM 100.42     LegendNANA
13:00 17.2 12.0 71   LegendMM LegendMM LegendMM 100.37     LegendNANA
14:00 16.5 12.3 76   LegendMM LegendMM LegendMM 100.36     LegendNANA
15:00 16.9 12.6 76   LegendMM LegendMM LegendMM 100.31     LegendNANA
16:00 16.2 12.7 80   LegendMM LegendMM LegendMM 100.26     LegendNANA
17:00 15.9 12.9 82   LegendMM LegendMM LegendMM 100.26     LegendNANA
18:00 16.0 13.2 83   LegendMM LegendMM LegendMM 100.24     LegendNANA
19:00 15.5 13.2 86   LegendMM LegendMM LegendMM 100.24     LegendNANA
20:00 15.3 12.2 82   LegendMM LegendMM LegendMM 100.25     LegendNANA
21:00 14.6 12.2 86   LegendMM LegendMM LegendMM 100.30     LegendNANA
22:00 15.2 12.6 84   LegendMM LegendMM LegendMM 100.34     LegendNANA
23:00 13.9 12.6 92   LegendMM LegendMM LegendMM 100.33     LegendNANA

Notes on Data Quality.

Legend

  • E = Estimated
  • M = Missing
  • NA = Not Available*
  • [empty] = Indicates an unobserved value
Date modified: